Dades meteomassalio
Diari Summary for Juny 27, 2017 Units:  Metric    English   Both
« Previous Day
Next Day »
Diari Semanal Mensual Anual Personalitzat
  Maxima: Minima: Mijana:
Temperatura: -17.8 °C -8.4 °C -3.4 °C
Rosada: -17.8 °C -14.7 °C -8.9 °C
Humitat: Humidity % 19 % 58 %
Velocitat del vent: 0 km/h 0 km/h 17.1 km/h
Racha vent: 0 km/h - -
Vent:- - SSW
Pressio: 0 hPa 33937.9 hPa -
Pluja: 0 mm    
Historical Graphs
 
 
Tabular Data for Juny 27, 2017
Time Temperature Dew Point Pressure Wind Wind Speed Wind Gust Humidity Rainfall Rate (Hourly) solar Conditions
-17.8 °C -17.8 °C 0 hPa Calm     Humidity % 0 mm SolarRadiationWatts/m^2 W/m2 Conditions
00:00 -4.9 °C -8.1 °C 34188.4 hPa Calm     71 % 0 mm 0.0 W/m2 RA
00:05 -5.1 °C -8.2 °C 34188.4 hPa Calm     71 % 0 mm 0.0 W/m2 CLR
00:10 -5.2 °C -8.2 °C 34198.6 hPa Calm     71 % 0 mm 0.0 W/m2 CLR
00:15 -5.2 °C -8.2 °C 34198.6 hPa Calm     72 % 0 mm 0.0 W/m2 CLR
00:20 -5.2 °C -8.2 °C 34198.6 hPa Calm     72 % 0 mm 0.0 W/m2 CLR
00:25 -5.3 °C -8.1 °C 34198.6 hPa Calm     73 % 0 mm 0.0 W/m2 CLR
00:30 -5.4 °C -8.2 °C 34198.6 hPa Calm     73 % 0 mm 0.0 W/m2 CLR
00:35 -5.4 °C -8.1 °C 34198.6 hPa Calm     74 % 0 mm 0.0 W/m2 CLR
00:40 -5.5 °C -8.1 °C 34198.6 hPa Calm     75 % 0 mm 0.0 W/m2 CLR
00:45 -5.6 °C -8.1 °C 34198.6 hPa Calm     75 % 0 mm 0.0 W/m2 CLR
00:50 -5.6 °C -8.2 °C 34198.6 hPa Calm     75 % 0 mm 0.0 W/m2 CLR
00:55 -5.7 °C -8.3 °C 34198.6 hPa Calm     75 % 0 mm 0.0 W/m2 CLR
01:00 -5.7 °C -8.2 °C 34188.4 hPa Calm     76 % 0 mm 0.0 W/m2 CLR
01:05 -5.8 °C -8.2 °C 34188.4 hPa Calm     76 % 0 mm 0.0 W/m2 CLR
01:10 -5.8 °C -8.2 °C 34188.4 hPa Calm     76 % 0 mm 0.0 W/m2 CLR
01:15 -5.9 °C -8.2 °C 34188.4 hPa Calm     77 % 0 mm 0.0 W/m2 CLR
01:20 -5.9 °C -8.3 °C 34188.4 hPa Calm     77 % 0 mm 0.0 W/m2 CLR
01:25 -5.9 °C -8.2 °C 34188.4 hPa Calm     78 % 0 mm 0.0 W/m2 CLR
01:30 -6.1 °C -8.3 °C 34188.4 hPa Calm     78 % 0 mm 0.0 W/m2 CLR
01:35 -6.1 °C -8.3 °C 34188.4 hPa Calm     78 % 0 mm 0.0 W/m2 CLR
01:40 -6.1 °C -8.3 °C 34188.4 hPa Calm     78 % 0 mm 0.0 W/m2 CLR
01:45 -6.2 °C -8.2 °C 34188.4 hPa Calm     79 % 0 mm 0.0 W/m2 CLR
01:50 -6.1 °C -8.3 °C 34188.4 hPa Calm     78 % 0 mm 0.0 W/m2 CLR
01:55 -6.1 °C -8.2 °C 34188.4 hPa Calm     79 % 0 mm 0.0 W/m2 CLR
02:00 -6.2 °C -8.3 °C 34188.4 hPa Calm     79 % 0 mm 0.0 W/m2 CLR
02:05 -6.2 °C -8.3 °C 34188.4 hPa Calm     79 % 0 mm 0.0 W/m2 CLR
02:10 -6.3 °C -8.4 °C 34178.3 hPa Calm     79 % 0 mm 0.0 W/m2 CLR
02:15 -6.3 °C -8.3 °C 34178.3 hPa Calm     80 % 0 mm 0.0 W/m2 CLR
02:20 -6.4 °C -8.3 °C 34178.3 hPa Calm     81 % 0 mm 0.0 W/m2 CLR
02:25 -6.6 °C -8.4 °C 34178.3 hPa Calm     81 % 0 mm 0.0 W/m2 CLR
02:30 -6.6 °C -8.5 °C 34178.3 hPa Calm     81 % 0 mm 0.0 W/m2 CLR
02:35 -6.7 °C -8.4 °C 34178.3 hPa Calm     82 % 0 mm 0.0 W/m2 CLR
02:36 -6.7 °C -8.4 °C 34178.3 hPa Calm     82 % 0 mm 0.0 W/m2 CLR
02:41 -6.7 °C -8.4 °C 34178.3 hPa Calm     82 % 0 mm 0.0 W/m2 CLR
02:46 -6.7 °C -8.4 °C 34178.3 hPa Calm     82 % 0 mm 0.0 W/m2 CLR
02:51 -6.7 °C -8.4 °C 34164.7 hPa Calm     82 % 0 mm 0.0 W/m2 CLR
02:56 -6.8 °C -8.5 °C 34164.7 hPa Calm     82 % 0 mm 0.0 W/m2 CLR
03:01 -6.8 °C -8.4 °C 34164.7 hPa Calm     83 % 0 mm 0.0 W/m2 CLR
03:06 -6.8 °C -8.4 °C 34164.7 hPa Calm     83 % 0 mm 0.0 W/m2 CLR
03:11 -6.9 °C -8.5 °C 34164.7 hPa Calm     83 % 0 mm 0.0 W/m2 CLR
03:16 -6.9 °C -8.5 °C 34164.7 hPa Calm     84 % 0 mm 0.0 W/m2 CLR
03:21 -7 °C -8.6 °C 34164.7 hPa Calm     84 % 0 mm 0.0 W/m2 CLR
03:22 -7 °C -8.6 °C 34164.7 hPa Calm     84 % 0 mm 0.0 W/m2 CLR
03:27 -7.1 °C -8.6 °C 34154.6 hPa Calm     84 % 0 mm 0.0 W/m2 CLR
03:32 -7.2 °C -8.6 °C 34154.6 hPa Calm     85 % 0 mm 0.0 W/m2 CLR
03:37 -7.2 °C -8.6 °C 34154.6 hPa Calm     85 % 0 mm 0.0 W/m2 CLR
03:42 -7.2 °C -8.6 °C 34154.6 hPa Calm     85 % 0 mm 0.0 W/m2 CLR
03:47 -7.3 °C -8.7 °C 34154.6 hPa Calm     85 % 0 mm 0.0 W/m2 CLR
03:52 -7.3 °C -8.7 °C 34154.6 hPa Calm     85 % 0 mm 0.0 W/m2 CLR
03:57 -7.4 °C -8.8 °C 34154.6 hPa Calm     85 % 0 mm 0.0 W/m2 CLR
04:02 -7.4 °C -8.7 °C 34154.6 hPa Calm     86 % 0 mm 0.0 W/m2 CLR
04:07 -7.4 °C -8.8 °C 34154.6 hPa Calm     86 % 0 mm 0.0 W/m2 CLR
04:12 -7.4 °C -8.8 °C 34154.6 hPa Calm     86 % 0 mm 0.0 W/m2 CLR
04:17 -7.4 °C -8.8 °C 34154.6 hPa Calm     86 % 0 mm 0.0 W/m2 CLR
04:22 -7.4 °C -8.8 °C 34154.6 hPa Calm     86 % 0 mm 0.0 W/m2 CLR
04:27 -7.4 °C -8.9 °C 34154.6 hPa Calm     85 % 0 mm 0.0 W/m2 CLR
04:32 -7.5 °C -8.9 °C 34154.6 hPa Calm     85 % 0 mm 0.0 W/m2 CLR
04:37 -7.5 °C -8.8 °C 34144.4 hPa Calm     86 % 0 mm 0.0 W/m2 CLR
04:42 -7.5 °C -8.8 °C 34144.4 hPa Calm     86 % 0 mm 0.0 W/m2 CLR
04:47 -7.5 °C -8.8 °C 34144.4 hPa Calm     86 % 0 mm 0.0 W/m2 CLR
04:52 -7.6 °C -8.8 °C 34144.4 hPa Calm     86 % 0 mm 0.0 W/m2 CLR
04:57 -7.6 °C -8.9 °C 34144.4 hPa Calm     86 % 0 mm 0.0 W/m2 CLR
05:02 -7.6 °C -8.9 °C 34130.9 hPa Calm     86 % 0 mm 0.0 W/m2 CLR
05:07 -7.6 °C -8.9 °C 34130.9 hPa Calm     86 % 0 mm 0.0 W/m2 CLR
05:12 -7.7 °C -9.1 °C 34130.9 hPa Calm     86 % 0 mm 0.0 W/m2 CLR
05:17 -7.8 °C -9.1 °C 34130.9 hPa Calm     86 % 0 mm 0.0 W/m2 CLR
05:22 -7.8 °C -9.1 °C 34130.9 hPa Calm     87 % 0 mm 0.0 W/m2 CLR
05:27 -7.9 °C -9.1 °C 34130.9 hPa Calm     87 % 0 mm 0.0 W/m2 CLR
05:32 -7.9 °C -9.1 °C 34130.9 hPa Calm     87 % 0 mm 0.0 W/m2 CLR
05:37 -7.9 °C -9.1 °C 34130.9 hPa Calm     87 % 0 mm 0.0 W/m2 CLR
05:42 -7.9 °C -9.2 °C 34130.9 hPa Calm     87 % 0 mm 0.0 W/m2 CLR
05:48 -8 °C -9.2 °C 34130.9 hPa Calm     87 % 0 mm 0.0 W/m2 CLR
05:53 -8.1 °C -9.2 °C 34120.7 hPa Calm     88 % 0 mm 0.0 W/m2 CLR
05:58 -8.1 °C -9.2 °C 34130.9 hPa Calm     88 % 0 mm 0.0 W/m2 CLR
06:03 -8.2 °C -9.3 °C 34120.7 hPa Calm     88 % 0 mm 0.0 W/m2 CLR
06:08 -8.2 °C -9.3 °C 34130.9 hPa Calm     88 % 0 mm 0.0 W/m2 CLR
06:13 -8.3 °C -9.4 °C 34130.9 hPa Calm     88 % 0 mm 0.0 W/m2 CLR
06:18 -8.3 °C -9.4 °C 34130.9 hPa Calm     88 % 0 mm 0.0 W/m2 CLR
06:23 -8.3 °C -9.3 °C 34130.9 hPa Calm     89 % 0 mm 0.0 W/m2 OVC
06:28 -8.3 °C -9.3 °C 34130.9 hPa Calm     89 % 0 mm 5.0 W/m2 OVC
06:33 -8.4 °C -9.4 °C 34130.9 hPa Calm     89 % 0 mm 7.0 W/m2 BKN
06:38 -8.4 °C -9.4 °C 34130.9 hPa Calm     89 % 0 mm 9.0 W/m2 BKN
06:43 -8.4 °C -9.4 °C 34120.7 hPa Calm     89 % 0 mm 12.0 W/m2 BKN
06:48 -8.4 °C -9.4 °C 34130.9 hPa Calm     89 % 0 mm 14.0 W/m2 BKN
06:53 -8.4 °C -9.4 °C 34130.9 hPa Calm     89 % 0 mm 19.0 W/m2 BKN
06:58 -8.4 °C -9.4 °C 34130.9 hPa Calm     89 % 0 mm 23.0 W/m2 BKN
07:03 -8.3 °C -9.3 °C 34130.9 hPa Calm     89 % 0 mm 28.0 W/m2 BKN
07:08 -8.3 °C -9.3 °C 34130.9 hPa Calm     89 % 0 mm 37.0 W/m2 BKN
07:13 -8.3 °C -9.3 °C 34130.9 hPa Calm     89 % 0 mm 49.0 W/m2 SCT
07:18 -8.2 °C -9.3 °C 34130.9 hPa Calm     89 % 0 mm 56.0 W/m2 SCT
07:23 -8.2 °C -9.3 °C 34130.9 hPa Calm     88 % 0 mm 77.0 W/m2 FEW
07:28 -8.1 °C -9.2 °C 34120.7 hPa Calm     88 % 0 mm 93.0 W/m2 CLR
07:33 -8 °C -9.2 °C 34120.7 hPa Calm     87 % 0 mm 102.0 W/m2 CLR
07:38 -7.9 °C -9.1 °C 34130.9 hPa Calm     87 % 0 mm 120.0 W/m2 CLR
07:43 -7.7 °C -9 °C 34120.7 hPa Calm     86 % 0 mm 134.0 W/m2 CLR
07:48 -7.6 °C -9.1 °C 34120.7 hPa Calm     84 % 0 mm 146.0 W/m2 CLR
07:53 -7.4 °C -9 °C 34120.7 hPa Calm     83 % 0 mm 163.0 W/m2 CLR
07:58 -7.2 °C -8.8 °C 34120.7 hPa Calm     83 % 0 mm 185.0 W/m2 CLR
08:03 -6.9 °C -8.8 °C 34120.7 hPa Calm     81 % 0 mm 151.0 W/m2 CLR
08:08 -6.8 °C -8.8 °C 34120.7 hPa Calm     79 % 0 mm 204.0 W/m2 CLR
08:13 -6.6 °C -8.8 °C 34120.7 hPa Calm     77 % 0 mm 213.0 W/m2 CLR
08:18 -6.3 °C -8.8 °C 34120.7 hPa Calm     76 % 0 mm 163.0 W/m2 CLR
08:23 -6.1 °C -8.8 °C 34120.7 hPa Calm     74 % 0 mm 213.0 W/m2 CLR
08:28 -5.9 °C -8.6 °C 34120.7 hPa Calm     74 % 0 mm 246.0 W/m2 CLR
08:33 -5.8 °C -8.6 °C 34120.7 hPa Calm     73 % 0 mm 276.0 W/m2 CLR
08:38 -5.6 °C -8.5 °C 34120.7 hPa Calm     72 % 0 mm 253.0 W/m2 CLR
08:43 -5.3 °C -8.4 °C 34120.7 hPa Calm     71 % 0 mm 218.0 W/m2 CLR
08:48 -5.1 °C -8.4 °C 34120.7 hPa Calm     69 % 0 mm 330.0 W/m2 CLR
08:53 -4.8 °C -8.4 °C 34107.2 hPa Calm     67 % 0 mm 230.0 W/m2 CLR
08:54 -4.7 °C -8.3 °C 34107.2 hPa Calm     67 % 0 mm 348.0 W/m2 CLR
08:58 -4.6 °C -8.4 °C 34107.2 hPa Calm     65 % 0 mm 367.0 W/m2 CLR
09:03 -4.3 °C -8.3 °C 34107.2 hPa Calm     64 % 0 mm 392.0 W/m2 CLR
09:08 -4.1 °C -8.2 °C 34107.2 hPa Calm     64 % 0 mm 406.0 W/m2 CLR
09:13 -3.8 °C -8.2 °C 34107.2 hPa Calm     62 % 0 mm 397.0 W/m2 CLR
09:18 -3.7 °C -8.1 °C 34097 hPa Calm     62 % 0 mm 429.0 W/m2 CLR
09:23 -3.5 °C -8 °C 34097 hPa Calm     61 % 0 mm 454.0 W/m2 CLR
09:28 -3.4 °C -7.9 °C 34097 hPa Calm     61 % 0 mm 466.0 W/m2 CLR
09:33 -3.2 °C -7.9 °C 34097 hPa Calm     60 % 0 mm 469.0 W/m2 CLR
09:38 -3.1 °C -7.6 °C 34097 hPa Calm     61 % 0 mm 489.0 W/m2 CLR
09:43 -3.1 °C -7.7 °C 34086.9 hPa Calm     60 % 0 mm 487.0 W/m2 CLR
09:48 -2.9 °C -7.7 °C 34086.9 hPa Calm     59 % 0 mm 501.0 W/m2 CLR
09:53 -2.8 °C -7.6 °C 34086.9 hPa Calm     59 % 0 mm 512.0 W/m2 CLR
09:58 -2.6 °C -7.6 °C 34086.9 hPa Calm     58 % 0 mm 552.0 W/m2 CLR
10:03 -2.6 °C -7.6 °C 34086.9 hPa Calm     58 % 0 mm 512.0 W/m2 CLR
10:08 -2.4 °C -7.6 °C 34073.3 hPa Calm   0.3 km/h 57 % 0 mm 552.0 W/m2 CLR
10:13 -2.1 °C -7.4 °C 34073.3 hPa East 11.9 km/h 11.9 km/h 56 % 0 mm 548.0 W/m2 CLR
10:18 -2 °C -7.5 °C 34073.3 hPa ENE 11.9 km/h 11.9 km/h 55 % 0 mm 599.0 W/m2 CLR
10:23 -1.8 °C -7.4 °C 34073.3 hPa ENE 11.9 km/h 11.9 km/h 55 % 0 mm 577.0 W/m2 CLR
10:28 -1.7 °C -6.9 °C 34073.3 hPa ENE 12.9 km/h 12.9 km/h 57 % 0 mm 603.0 W/m2 CLR
10:33 -1.6 °C -7 °C 34063.2 hPa East 11.9 km/h 11.9 km/h 56 % 0 mm 647.0 W/m2 CLR
10:38 -1.6 °C -7.3 °C 34063.2 hPa ENE 12.9 km/h 12.9 km/h 54 % 0 mm 684.0 W/m2 CLR
10:43 -1.4 °C -7.2 °C 34063.2 hPa ENE 9 km/h 9 km/h 54 % 0 mm 661.0 W/m2 CLR
10:47 -1.3 °C -7.4 °C 34063.2 hPa ENE 9 km/h 9 km/h 52 % 0 mm 631.0 W/m2 CLR
11:19 -1.3 °C -7.4 °C 34063.2 hPa ENE 9 km/h 9 km/h 52 % 0 mm 631.0 W/m2 CLR
11:24 -0.4 °C -7.1 °C 34039.5 hPa ENE 9 km/h 9 km/h 49 % 0 mm 780.0 W/m2 CLR
11:29 -0.4 °C -7.1 °C 34039.5 hPa ENE 9 km/h 9 km/h 49 % 0 mm 780.0 W/m2 CLR
11:34 -0.1 °C -7.6 °C 34039.5 hPa WNW 17.9 km/h 17.9 km/h 45 % 0 mm 545.0 W/m2 CLR
11:39 -0.1 °C -7.2 °C 34039.5 hPa ENE 11.9 km/h 11.9 km/h 47 % 0 mm 826.0 W/m2 CLR
11:44 -0.1 °C -9.7 °C 34039.5 hPa SE 32.8 km/h 32.8 km/h 35 % 0 mm 735.0 W/m2 CLR
11:49 0.1 °C -7.8 °C 34029.3 hPa NNW 32.8 km/h 32.8 km/h 43 % 0 mm 589.0 W/m2 CLR
11:54 -0.3 °C -7.3 °C 34039.5 hPa NNW 41.7 km/h 41.7 km/h 47 % 0 mm 708.0 W/m2 CLR
11:59 -0.5 °C -7.6 °C 34039.5 hPa North 29.8 km/h 29.8 km/h 47 % 0 mm 271.0 W/m2 CLR
12:04 -0.4 °C -8.1 °C 34029.3 hPa NNE 15 km/h 15 km/h 44 % 0 mm 670.0 W/m2 CLR
12:09 -0.1 °C -9.3 °C 34029.3 hPa NNE 17.9 km/h 17.9 km/h 37 % 0 mm 740.0 W/m2 CLR
12:14 0.3 °C -8 °C 34029.3 hPa WNW 20.9 km/h 20.9 km/h 41 % 0 mm 958.0 W/m2 CLR
12:19 0.5 °C -8.5 °C 34029.3 hPa NW 26.9 km/h 26.9 km/h 38 % 0 mm 884.0 W/m2 CLR
12:24 0.5 °C -8.7 °C 34029.3 hPa North 17.9 km/h 17.9 km/h 37 % 0 mm 779.0 W/m2 CLR
12:29 0.5 °C -8.7 °C 34029.3 hPa WNW 23.8 km/h 23.8 km/h 37 % 0 mm 364.0 W/m2 CLR
12:34 0.5 °C -8.5 °C 34029.3 hPa NNW 38.8 km/h 38.8 km/h 38 % 0 mm 288.0 W/m2 CLR
12:39 0.4 °C -9.1 °C 34029.3 hPa NW 23.3 km/h 23.3 km/h 36 % 0 mm 253.0 W/m2 CLR
12:44 0.3 °C -8.9 °C 34029.3 hPa North 32.8 km/h 32.8 km/h 37 % 0 mm 380.0 W/m2 CLR
12:49 0.4 °C -8.4 °C 34029.3 hPa North 29.8 km/h 29.8 km/h 39 % 0 mm 738.0 W/m2 CLR
12:54 0.5 °C -8.2 °C 34029.3 hPa NW 31.1 km/h 31.1 km/h 39 % 0 mm 278.0 W/m2 CLR
12:55 0.5 °C -8.2 °C 34029.3 hPa NNW 28.5 km/h 28.5 km/h 39 % 0 mm 278.0 W/m2 CLR
13:00 0.4 °C -8.4 °C 34029.3 hPa North 35.7 km/h 35.7 km/h 39 % 0 mm 338.0 W/m2 CLR
13:05 0.4 °C -7.9 °C 34029.3 hPa North 26.9 km/h 26.9 km/h 41 % 0 mm 916.0 W/m2 CLR
13:10 0.6 °C -8.9 °C 34029.3 hPa NNE 38.8 km/h 38.8 km/h 36 % 0 mm 772.0 W/m2 CLR
13:15 0.7 °C -9.3 °C 34015.8 hPa North 44.7 km/h 44.7 km/h 34 % 0 mm 972.0 W/m2 CLR
13:20 0.7 °C -9.5 °C 34015.8 hPa NNE 41.7 km/h 41.7 km/h 33 % 0 mm 671.0 W/m2 CLR
13:25 0.8 °C -9.4 °C 34029.3 hPa NE 15 km/h 15 km/h 33 % 0 mm 1007.0 W/m2 CLR
13:30 0.9 °C -10.2 °C 34015.8 hPa North 35.7 km/h 35.7 km/h 30 % 0 mm 930.0 W/m2 CLR
13:35 0.7 °C -9.8 °C 34015.8 hPa ENE 29.8 km/h 29.8 km/h 32 % 0 mm 990.0 W/m2 CLR
13:40 0.9 °C -9.9 °C 34015.8 hPa NNW 44.7 km/h 44.7 km/h 31 % 0 mm 1055.0 W/m2 CLR
13:45 1 °C -9.3 °C 34015.8 hPa NNE 29.8 km/h 29.8 km/h 33 % 0 mm 1016.0 W/m2 CLR
13:50 1.1 °C -9 °C 34015.8 hPa WNW 41.7 km/h 41.7 km/h 34 % 0 mm 1018.0 W/m2 CLR
13:55 0.9 °C -9.6 °C 34005.6 hPa NW 44.7 km/h 44.7 km/h 32 % 0 mm 993.0 W/m2 CLR
13:57 1 °C -8.1 °C 33992.1 hPa NNE 50.7 km/h 50.7 km/h 38 % 0 mm 981.0 W/m2 CLR
14:02 0.9 °C -8.2 °C 34005.6 hPa ESE 41.7 km/h 41.7 km/h 38 % 0 mm 874.0 W/m2 CLR
14:07 0.7 °C -7.8 °C 34005.6 hPa ESE 15 km/h 15 km/h 40 % 0 mm 958.0 W/m2 CLR
14:12 0.7 °C -8.1 °C 33992.1 hPa ENE 23.8 km/h 23.8 km/h 39 % 0 mm 840.0 W/m2 CLR
14:17 0.7 °C -8.3 °C 33992.1 hPa SSE 15 km/h 15 km/h 38 % 0 mm 840.0 W/m2 CLR
14:22 0.6 °C -8.2 °C 33992.1 hPa SE 12.9 km/h 12.9 km/h 39 % 0 mm 1013.0 W/m2 CLR
14:27 0.4 °C -7.7 °C 33981.9 hPa ESE 20.9 km/h 20.9 km/h 42 % 0 mm 1016.0 W/m2 CLR
14:32 0.4 °C -8.4 °C 33981.9 hPa ESE 35.7 km/h 35.7 km/h 39 % 0 mm 896.0 W/m2 CLR
14:37 0.5 °C -8.5 °C 33981.9 hPa ESE 17.9 km/h 17.9 km/h 38 % 0 mm 759.0 W/m2 CLR
14:42 0.4 °C -8.1 °C 33971.7 hPa East 29.8 km/h 29.8 km/h 40 % 0 mm 895.0 W/m2 CLR
14:48 0.3 °C -8.2 °C 33971.7 hPa ESE 32.8 km/h 32.8 km/h 40 % 0 mm 489.0 W/m2 CLR
14:58 0.1 °C -8 °C 33971.7 hPa ESE 44.7 km/h 44.7 km/h 42 % 0 mm 438.0 W/m2 CLR
15:03 -0.1 °C -7.5 °C 33971.7 hPa East 23.3 km/h 23.3 km/h 45 % 0 mm 550.0 W/m2 CLR
15:08 -0.2 °C -7.4 °C 33981.9 hPa East 26.9 km/h 26.9 km/h 46 % 0 mm 984.0 W/m2 CLR
15:13 -0.1 °C -7.9 °C 33981.9 hPa SE 29.8 km/h 29.8 km/h 43 % 0 mm 877.0 W/m2 CLR
15:18 0 °C -7.9 °C 33981.9 hPa SE 17.9 km/h 17.9 km/h 43 % 0 mm 666.0 W/m2 CLR
15:23 0.2 °C -7.6 °C 33971.7 hPa SE 9 km/h 9 km/h 44 % 0 mm 991.0 W/m2 CLR
15:28 0.2 °C -8.1 °C 33971.7 hPa Calm     41 % 0 mm 944.0 W/m2 CLR
15:33 0.4 °C -7.7 °C 33981.9 hPa NE 9 km/h 9 km/h 42 % 0 mm 986.0 W/m2 CLR
15:38 0.3 °C -6.9 °C 33971.7 hPa East 32.8 km/h 32.8 km/h 46 % 0 mm 981.0 W/m2 CLR
15:43 -0.2 °C -7.2 °C 33971.7 hPa SE 50.7 km/h 50.7 km/h 47 % 0 mm 926.0 W/m2 CLR
15:48 -0.3 °C -7.2 °C 33958.2 hPa ESE 38.8 km/h 38.8 km/h 48 % 0 mm 944.0 W/m2 CLR
15:53 -0.3 °C -7.1 °C 33958.2 hPa ESE 41.7 km/h 41.7 km/h 48 % 0 mm 956.0 W/m2 CLR
15:58 -0.5 °C -7.2 °C 33958.2 hPa East 38.8 km/h 38.8 km/h 49 % 0 mm 1044.0 W/m2 CLR
16:03 -0.8 °C -7.1 °C 33971.7 hPa East 56.6 km/h 56.6 km/h 51 % 0 mm 169.0 W/m2 CLR
16:08 -1.2 °C -7 °C 33971.7 hPa ESE 41.7 km/h 41.7 km/h 54 % 0 mm 216.0 W/m2 CLR
16:13 -1.3 °C -6.9 °C 33971.7 hPa ESE 29.8 km/h 29.8 km/h 55 % 0 mm 297.0 W/m2 CLR
16:18 -1.6 °C -7.1 °C 33971.7 hPa ENE 35.7 km/h 35.7 km/h 55 % 0 mm 239.0 W/m2 CLR
16:23 -1.6 °C -7 °C 33971.7 hPa ESE 23.8 km/h 23.8 km/h 56 % 0 mm 888.0 W/m2 CLR
16:28 -1.6 °C -6.9 °C 33971.7 hPa ESE 29.8 km/h 29.8 km/h 56 % 0 mm 805.0 W/m2 CLR
16:33 -1.4 °C -6.8 °C 33971.7 hPa SE 26.9 km/h 26.9 km/h 56 % 0 mm 773.0 W/m2 CLR
16:38 -1.3 °C -6.9 °C 33971.7 hPa SE 29.8 km/h 29.8 km/h 55 % 0 mm 759.0 W/m2 CLR
16:43 -1.2 °C -6.7 °C 33958.2 hPa ESE 32.8 km/h 32.8 km/h 55 % 0 mm 761.0 W/m2 CLR
16:48 -1.1 °C -6.8 °C 33971.7 hPa East 17.9 km/h 17.9 km/h 54 % 0 mm 744.0 W/m2 CLR
16:53 -1.2 °C -6.9 °C 33958.2 hPa East 3.1 km/h 3.1 km/h 54 % 0 mm 731.0 W/m2 CLR
16:58 -1 °C -6.9 °C 33958.2 hPa SE 18.2 km/h 18.2 km/h 53 % 0 mm 722.0 W/m2 CLR
17:03 -0.8 °C -7.6 °C 33958.2 hPa NE 9 km/h 9 km/h 48 % 0 mm 705.0 W/m2 CLR
17:08 -0.5 °C -7.6 °C 33948 hPa East 9 km/h 9 km/h 47 % 0 mm 700.0 W/m2 CLR
17:13 -0.2 °C -7.8 °C 33948 hPa NE 20.8 km/h 20.8 km/h 44 % 0 mm 682.0 W/m2 CLR
17:18 0.1 °C -8.2 °C 33948 hPa NE 9 km/h 9 km/h 41 % 0 mm 671.0 W/m2 CLR
17:23 0.3 °C -8 °C 33948 hPa ENE 9 km/h 9 km/h 41 % 0 mm 661.0 W/m2 CLR
17:28 0.4 °C -8.1 °C 33948 hPa NNE 15.6 km/h 15.6 km/h 40 % 0 mm 642.0 W/m2 CLR
17:33 0.4 °C -7.9 °C 33948 hPa ENE 11.9 km/h 11.9 km/h 41 % 0 mm 640.0 W/m2 CLR
17:38 0.3 °C -7.3 °C 33937.9 hPa ESE 6 km/h 6 km/h 44 % 0 mm 615.0 W/m2 CLR
17:43 0 °C -7.1 °C 33937.9 hPa ESE 17.9 km/h 17.9 km/h 47 % 0 mm 605.0 W/m2 CLR
17:48 -0.1 °C -7.1 °C 33948 hPa Calm     47 % 0 mm 599.0 W/m2 CLR
17:53 -0.1 °C -7 °C 33948 hPa ENE 9 km/h 9 km/h 48 % 0 mm 592.0 W/m2 CLR
17:58 -0.1 °C -6.9 °C 33948 hPa Calm     48 % 0 mm 582.0 W/m2 CLR
18:00 0 °C -7.1 °C 33948 hPa NNW 12.9 km/h 12.9 km/h 47 % 0 mm 587.0 W/m2 CLR
18:05 -0.2 °C -7.3 °C 33948 hPa SE 20.9 km/h 20.9 km/h 47 % 0 mm 90.0 W/m2 CLR
18:10 -0.7 °C -7.3 °C 33948 hPa East 20.9 km/h 20.9 km/h 49 % 0 mm 127.0 W/m2 CLR
18:11 -0.7 °C -7.3 °C 33948 hPa East 17.9 km/h 17.9 km/h 49 % 0 mm 137.0 W/m2 CLR
18:16 -1 °C -7.3 °C 33948 hPa ESE 35.7 km/h 35.7 km/h 51 % 0 mm 105.0 W/m2 CLR
18:21 -1.2 °C -7.3 °C 33948 hPa ENE 26.9 km/h 26.9 km/h 52 % 0 mm 109.0 W/m2 CLR
18:26 -1.2 °C -7.1 °C 33958.2 hPa ENE 26.9 km/h 26.9 km/h 53 % 0 mm 118.0 W/m2 CLR
18:31 -1.3 °C -7.3 °C 33948 hPa ESE 29.8 km/h 29.8 km/h 52 % 0 mm 125.0 W/m2 CLR
18:36 -1.4 °C -7 °C 33948 hPa ESE 26.9 km/h 26.9 km/h 55 % 0 mm 132.0 W/m2 CLR
18:41 -1.5 °C -6.9 °C 33948 hPa ESE 29.8 km/h 29.8 km/h 56 % 0 mm 153.0 W/m2 CLR
18:46 -1.4 °C -7 °C 33948 hPa ESE 29.8 km/h 29.8 km/h 55 % 0 mm 190.0 W/m2 CLR
18:51 -1.4 °C -7 °C 33948 hPa Calm     55 % 0 mm 155.0 W/m2 CLR
18:56 -1.4 °C -6.8 °C 33948 hPa ESE 7.7 km/h 7.7 km/h 56 % 0 mm 199.0 W/m2 CLR
19:01 -1.3 °C -7 °C 33958.2 hPa Calm     54 % 0 mm 497.0 W/m2 CLR
19:06 -1.1 °C -7 °C 33948 hPa East 11.9 km/h 11.9 km/h 53 % 0 mm 489.0 W/m2 CLR
19:11 -1.1 °C -6.9 °C 33948 hPa East 15 km/h 15 km/h 53 % 0 mm 448.0 W/m2 CLR
19:16 -0.9 °C -7.1 °C 33948 hPa ENE 15 km/h 15 km/h 52 % 0 mm 438.0 W/m2 CLR
19:21 -0.9 °C -7 °C 33948 hPa WNW 20.9 km/h 20.9 km/h 52 % 0 mm 427.0 W/m2 CLR
19:26 -0.4 °C -12.4 °C 33948 hPa NE 38.8 km/h 38.8 km/h 26 % 0 mm 396.0 W/m2 CLR
19:31 0.2 °C -12.4 °C 33958.2 hPa NNW 32.8 km/h 32.8 km/h 25 % 0 mm 353.0 W/m2 CLR
19:36 0.4 °C -13.6 °C 33958.2 hPa NNW 38.8 km/h 38.8 km/h 21 % 0 mm 311.0 W/m2 CLR
19:41 0.4 °C -13.9 °C 33948 hPa NNW 74.5 km/h 74.5 km/h 20 % 0 mm 281.0 W/m2 CLR
19:46 0.3 °C -14.1 °C 33958.2 hPa NNW 59.5 km/h 59.5 km/h 20 % 0 mm 253.0 W/m2 CLR
19:51 0.2 °C -14.1 °C 33948 hPa NNW 53.6 km/h 53.6 km/h 20 % 0 mm 236.0 W/m2 CLR
19:56 0.2 °C -14.1 °C 33958.2 hPa NW 38.8 km/h 38.8 km/h 20 % 0 mm 214.0 W/m2 CLR
20:01 0.2 °C -14.6 °C 33958.2 hPa NW 56.6 km/h 56.6 km/h 19 % 0 mm 199.0 W/m2 CLR
20:06 0.1 °C -14.6 °C 33958.2 hPa NW 71.5 km/h 71.5 km/h 19 % 0 mm 179.0 W/m2 CLR
20:11 0.1 °C -14.7 °C 33958.2 hPa NW 62.6 km/h 62.6 km/h 19 % 0 mm 162.0 W/m2 CLR
20:16 0 °C -14.3 °C 33958.2 hPa NW 53.6 km/h 53.6 km/h 20 % 0 mm 146.0 W/m2 CLR
20:21 -0.1 °C -14.4 °C 33958.2 hPa NNW 56.6 km/h 56.6 km/h 20 % 0 mm 132.0 W/m2 CLR
20:26 -0.1 °C -14 °C 33958.2 hPa NNW 47.6 km/h 47.6 km/h 21 % 0 mm 116.0 W/m2 CLR
20:31 -0.2 °C -14.1 °C 33958.2 hPa NW 35.7 km/h 35.7 km/h 21 % 0 mm 98.0 W/m2 CLR
20:36 -0.2 °C -13.7 °C 33958.2 hPa NNW 50.7 km/h 50.7 km/h 22 % 0 mm 84.0 W/m2 CLR
20:41 -0.4 °C -12.3 °C 33971.7 hPa North 50.7 km/h 50.7 km/h 27 % 0 mm 70.0 W/m2 FEW
20:46 -0.8 °C -11.9 °C 33971.7 hPa NW 50.7 km/h 50.7 km/h 29 % 0 mm 47.0 W/m2 SCT
20:47 -0.8 °C -12 °C 33971.7 hPa North 41.7 km/h 41.7 km/h 29 % 0 mm 30.0 W/m2 BKN
20:52 -0.9 °C -12.1 °C 33971.7 hPa North 47.6 km/h 47.6 km/h 29 % 0 mm 42.0 W/m2 BKN
20:57 -1.1 °C -12.2 °C 33981.9 hPa North 32.8 km/h 32.8 km/h 29 % 0 mm 33.0 W/m2 BKN
21:02 -1.2 °C -12 °C 33981.9 hPa North 54.4 km/h 54.4 km/h 30 % 0 mm 25.0 W/m2 BKN
21:08 -1.5 °C -11.7 °C 33992.1 hPa NNW 68.6 km/h 68.6 km/h 32 % 0 mm 19.0 W/m2 BKN
21:13 -1.7 °C -11.7 °C 33992.1 hPa NW 54.4 km/h 54.4 km/h 33 % 0 mm 14.0 W/m2 BKN
21:18 -2 °C -11.6 °C 33992.1 hPa NNW 38.8 km/h 38.8 km/h 34 % 0 mm 12.0 W/m2 BKN
21:23 -2.1 °C -11.5 °C 34005.6 hPa North 38.8 km/h 38.8 km/h 35 % 0 mm 9.0 W/m2 BKN
21:28 -2.3 °C -11.4 °C 34005.6 hPa NNW 41.7 km/h 41.7 km/h 36 % 0 mm 5.0 W/m2 OVC
21:33 -2.5 °C -11.6 °C 34005.6 hPa NNW 44.7 km/h 44.7 km/h 36 % 0 mm 0.0 W/m2 OVC
21:38 -2.7 °C -11.5 °C 34005.6 hPa NW 41.7 km/h 41.7 km/h 37 % 0 mm 0.0 W/m2 OVC
21:43 -2.8 °C -11.2 °C 34005.6 hPa NNW 44.7 km/h 44.7 km/h 39 % 0 mm 0.0 W/m2 OVC
21:48 -3 °C -11.2 °C 34005.6 hPa NW 56.6 km/h 56.6 km/h 40 % 0 mm 0.0 W/m2 CLR
21:53 -3.1 °C -11.1 °C 34015.8 hPa NW 44.1 km/h 44.1 km/h 41 % 0 mm 0.0 W/m2 CLR
21:58 -3.2 °C -11 °C 34015.8 hPa NW 50.7 km/h 50.7 km/h 42 % 0 mm 0.0 W/m2 CLR
22:03 -3.3 °C -10.9 °C 34029.3 hPa NW 56.6 km/h 56.6 km/h 43 % 0 mm 0.0 W/m2 CLR
22:08 -3.4 °C -10.9 °C 34029.3 hPa NNW 49.2 km/h 49.2 km/h 43 % 0 mm 0.0 W/m2 CLR
22:13 -3.5 °C -10.8 °C 34029.3 hPa NNW 46.7 km/h 46.7 km/h 44 % 0 mm 0.0 W/m2 CLR
22:18 -3.6 °C -10.7 °C 34039.5 hPa NW 47.6 km/h 47.6 km/h 45 % 0 mm 0.0 W/m2 CLR
22:23 -3.7 °C -10.8 °C 34039.5 hPa WNW 38.8 km/h 38.8 km/h 45 % 0 mm 0.0 W/m2 CLR
22:28 -3.8 °C -10.7 °C 34039.5 hPa NNW 38.8 km/h 38.8 km/h 46 % 0 mm 0.0 W/m2 CLR
22:30 -3.8 °C -10.7 °C 34039.5 hPa NW 44.7 km/h 44.7 km/h 46 % 0 mm 0.0 W/m2 CLR
22:35 -3.8 °C -10.8 °C 34049.6 hPa NW 35.7 km/h 35.7 km/h 46 % 0 mm 0.0 W/m2 CLR
22:40 -3.9 °C -10.7 °C 34049.6 hPa NW 31.1 km/h 31.1 km/h 47 % 0 mm 0.0 W/m2 CLR
22:45 -4 °C -10.7 °C 34049.6 hPa WNW 33.6 km/h 33.6 km/h 47 % 0 mm 0.0 W/m2 CLR
22:50 -4 °C -10.7 °C 34049.6 hPa NW 35.7 km/h 35.7 km/h 47 % 0 mm 0.0 W/m2 CLR
22:55 -4.1 °C -10.7 °C 34049.6 hPa NNW 32.8 km/h 32.8 km/h 47 % 0 mm 0.0 W/m2 CLR
23:00 -4.1 °C -10.8 °C 34063.2 hPa NW 38.8 km/h 38.8 km/h 47 % 0 mm 0.0 W/m2 CLR
23:05 -4.1 °C -10.8 °C 34049.6 hPa NW 26.9 km/h 26.9 km/h 47 % 0 mm 0.0 W/m2 CLR
23:10 -4.2 °C -10.7 °C 34049.6 hPa WNW 41.4 km/h 41.4 km/h 48 % 0 mm 0.0 W/m2 CLR
23:11 -4.2 °C -10.9 °C 34049.6 hPa WNW 41.7 km/h 41.7 km/h 47 % 0 mm 0.0 W/m2 CLR
23:16 -4.2 °C -10.7 °C 34063.2 hPa WNW 35.7 km/h 35.7 km/h 48 % 0 mm 0.0 W/m2 CLR
23:21 -4.2 °C -10.9 °C 34063.2 hPa WNW 38.8 km/h 38.8 km/h 47 % 0 mm 0.0 W/m2 CLR
23:26 -4.2 °C -10.7 °C 34063.2 hPa WNW 29.8 km/h 29.8 km/h 48 % 0 mm 0.0 W/m2 CLR
23:31 -4.3 °C -10.8 °C 34073.3 hPa West 29.8 km/h 29.8 km/h 48 % 0 mm 0.0 W/m2 CLR
23:36 -4.3 °C -10.8 °C 34073.3 hPa WNW 28.5 km/h 28.5 km/h 48 % 0 mm 0.0 W/m2 CLR
23:41 -4.3 °C -10.8 °C 34073.3 hPa West 26.9 km/h 26.9 km/h 48 % 0 mm 0.0 W/m2 CLR
23:46 -4.3 °C -10.8 °C 34073.3 hPa West 26.9 km/h 26.9 km/h 48 % 0 mm 0.0 W/m2 CLR
23:51 -4.3 °C -10.7 °C 34073.3 hPa SW 17.9 km/h 17.9 km/h 49 % 0 mm 0.0 W/m2 CLR
23:56 -4.4 °C -10.7 °C 34086.9 hPa West 15.6 km/h 15.6 km/h 49 % 0 mm 0.0 W/m2 CLR
Lo Temps de Massalio
Compliments of Weather Underground - 1.25 mb